GFSGBSN_prec_pwat_273.txt.gz
Precipitable_Water
0.82 0.83 0.84 0.84 0.80 0.72 0.68 0.66 0.66 0.69 0.68 0.66 0.65 0.65 0.64 0.63 0.61 0.61 0.58 0.55 0.53 0.51 0.50 0.49 0.48 0.50 0.43 0.27 0.27 0.35 0.48 0.70 0.80 0.73 0.71 0.60 0.59 0.62 0.66 0.67 0.84 0.92 0.99 0.91 0.97 0.99 1.03
0.79 0.79 0.81 0.82 0.79 0.72 0.69 0.67 0.64 0.68 0.69 0.68 0.66 0.64 0.64 0.63 0.60 0.59 0.57 0.55 0.52 0.51 0.49 0.48 0.48 0.48 0.38 0.22 0.31 0.32 0.35 0.54 0.66 0.68 0.70 0.59 0.58 0.68 0.68 0.65 0.70 0.81 0.84 0.86 0.91 0.90 0.96
0.77 0.77 0.78 0.79 0.76 0.71 0.68 0.68 0.64 0.64 0.70 0.69 0.65 0.63 0.63 0.63 0.60 0.56 0.53 0.52 0.51 0.50 0.51 0.50 0.49 0.44 0.30 0.27 0.32 0.32 0.31 0.47 0.53 0.60 0.54 0.62 0.57 0.59 0.71 0.65 0.70 0.74 0.72 0.77 0.75 0.88 0.98
0.74 0.77 0.76 0.76 0.74 0.70 0.67 0.67 0.64 0.62 0.69 0.70 0.66 0.63 0.61 0.62 0.60 0.56 0.52 0.50 0.50 0.52 0.52 0.53 0.49 0.44 0.26 0.30 0.33 0.28 0.33 0.34 0.54 0.59 0.60 0.49 0.64 0.63 0.60 0.69 0.63 0.61 0.77 0.66 0.94 0.92 0.91
0.75 0.75 0.73 0.74 0.73 0.70 0.68 0.67 0.64 0.62 0.68 0.71 0.68 0.63 0.61 0.60 0.58 0.55 0.52 0.50 0.50 0.53 0.55 0.51 0.46 0.37 0.27 0.29 0.19 0.23 0.29 0.27 0.38 0.53 0.57 0.62 0.63 0.62 0.60 0.48 0.58 0.62 0.56 0.65 0.74 0.86 0.78
0.74 0.72 0.70 0.73 0.71 0.69 0.67 0.66 0.65 0.63 0.68 0.72 0.68 0.66 0.63 0.59 0.55 0.53 0.52 0.52 0.55 0.55 0.52 0.52 0.42 0.30 0.26 0.17 0.22 0.30 0.32 0.30 0.28 0.34 0.43 0.47 0.54 0.54 0.51 0.51 0.49 0.61 0.55 0.68 0.66 0.72 0.62
0.71 0.70 0.70 0.70 0.68 0.67 0.66 0.66 0.65 0.63 0.69 0.72 0.68 0.67 0.64 0.58 0.54 0.55 0.51 0.51 0.44 0.46 0.46 0.33 0.33 0.22 0.23 0.27 0.31 0.24 0.28 0.27 0.27 0.26 0.21 0.33 0.40 0.42 0.48 0.54 0.57 0.67 0.64 0.60 0.60 0.69 0.54
0.71 0.70 0.69 0.69 0.69 0.68 0.67 0.65 0.64 0.63 0.71 0.73 0.68 0.68 0.64 0.58 0.55 0.56 0.54 0.42 0.47 0.55 0.29 0.37 0.32 0.27 0.28 0.28 0.22 0.24 0.28 0.19 0.23 0.20 0.22 0.20 0.20 0.29 0.48 0.54 0.53 0.55 0.54 0.48 0.53 0.62 0.53
0.70 0.69 0.69 0.70 0.69 0.67 0.66 0.64 0.63 0.64 0.72 0.71 0.68 0.67 0.62 0.58 0.58 0.55 0.50 0.50 0.56 0.54 0.29 0.32 0.30 0.26 0.27 0.25 0.19 0.20 0.25 0.18 0.19 0.19 0.19 0.18 0.20 0.20 0.22 0.41 0.47 0.52 0.47 0.52 0.52 0.62 0.51
0.70 0.70 0.70 0.70 0.68 0.67 0.65 0.63 0.62 0.67 0.74 0.70 0.68 0.65 0.61 0.60 0.54 0.52 0.50 0.59 0.60 0.57 0.24 0.25 0.20 0.25 0.30 0.28 0.19 0.25 0.26 0.20 0.17 0.17 0.18 0.18 0.20 0.18 0.15 0.25 0.42 0.40 0.52 0.52 0.57 0.46 0.45
0.70 0.69 0.68 0.68 0.66 0.65 0.64 0.63 0.65 0.72 0.74 0.69 0.67 0.64 0.63 0.65 0.57 0.49 0.62 0.59 0.59 0.47 0.16 0.24 0.24 0.40 0.33 0.21 0.24 0.21 0.27 0.21 0.17 0.18 0.18 0.17 0.20 0.18 0.15 0.20 0.28 0.40 0.55 0.57 0.51 0.48 0.46
0.69 0.68 0.67 0.65 0.64 0.64 0.64 0.66 0.71 0.75 0.72 0.67 0.65 0.66 0.71 0.67 0.62 0.59 0.61 0.61 0.49 0.20 0.14 0.23 0.29 0.23 0.22 0.22 0.24 0.24 0.21 0.27 0.24 0.20 0.18 0.18 0.22 0.20 0.19 0.18 0.26 0.40 0.46 0.53 0.51 0.43 0.39
0.66 0.66 0.66 0.65 0.63 0.64 0.66 0.70 0.74 0.76 0.70 0.65 0.66 0.72 0.71 0.71 0.60 0.64 0.64 0.50 0.25 0.17 0.27 0.25 0.24 0.27 0.24 0.24 0.20 0.22 0.18 0.18 0.18 0.16 0.15 0.17 0.16 0.19 0.19 0.16 0.22 0.32 0.36 0.32 0.34 0.35 0.37
0.66 0.65 0.65 0.64 0.63 0.63 0.65 0.68 0.73 0.75 0.68 0.65 0.72 0.75 0.74 0.69 0.72 0.67 0.58 0.36 0.22 0.24 0.22 0.35 0.31 0.29 0.25 0.28 0.23 0.20 0.20 0.15 0.19 0.21 0.17 0.16 0.13 0.14 0.18 0.15 0.16 0.21 0.23 0.27 0.30 0.34 0.37
0.68 0.65 0.64 0.64 0.63 0.60 0.62 0.64 0.70 0.74 0.66 0.70 0.80 0.74 0.68 0.71 0.72 0.68 0.47 0.27 0.24 0.25 0.36 0.29 0.27 0.23 0.25 0.28 0.27 0.20 0.19 0.20 0.21 0.21 0.18 0.16 0.16 0.20 0.19 0.18 0.17 0.17 0.15 0.20 0.28 0.38 0.38
0.74 0.70 0.66 0.63 0.64 0.62 0.60 0.60 0.61 0.72 0.67 0.77 0.76 0.72 0.63 0.71 0.72 0.60 0.41 0.34 0.32 0.34 0.34 0.29 0.20 0.29 0.28 0.31 0.23 0.20 0.20 0.21 0.21 0.24 0.26 0.21 0.17 0.22 0.20 0.19 0.17 0.16 0.18 0.14 0.14 0.22 0.33
0.74 0.73 0.71 0.66 0.62 0.64 0.62 0.57 0.58 0.64 0.68 0.85 0.78 0.74 0.71 0.75 0.69 0.51 0.37 0.40 0.37 0.32 0.28 0.27 0.25 0.32 0.29 0.34 0.33 0.23 0.22 0.24 0.24 0.23 0.27 0.23 0.19 0.19 0.22 0.17 0.15 0.15 0.14 0.18 0.18 0.24 0.30
0.72 0.71 0.70 0.68 0.63 0.61 0.61 0.60 0.56 0.61 0.68 0.80 0.74 0.69 0.81 0.75 0.48 0.52 0.43 0.43 0.44 0.38 0.38 0.29 0.33 0.35 0.35 0.40 0.37 0.30 0.29 0.24 0.29 0.24 0.24 0.24 0.19 0.18 0.21 0.22 0.21 0.17 0.16 0.20 0.20 0.27 0.34
0.72 0.71 0.70 0.69 0.69 0.65 0.60 0.54 0.52 0.57 0.68 0.71 0.71 0.73 0.80 0.73 0.54 0.55 0.55 0.46 0.47 0.43 0.42 0.37 0.29 0.36 0.39 0.34 0.39 0.41 0.43 0.45 0.48 0.37 0.24 0.28 0.21 0.17 0.20 0.21 0.20 0.17 0.15 0.18 0.20 0.30 0.36
0.71 0.71 0.71 0.70 0.69 0.68 0.67 0.64 0.58 0.52 0.62 0.69 0.64 0.60 0.68 0.60 0.58 0.52 0.53 0.53 0.49 0.55 0.45 0.51 0.43 0.42 0.43 0.38 0.46 0.51 0.47 0.54 0.61 0.50 0.38 0.27 0.23 0.20 0.16 0.20 0.21 0.19 0.19 0.19 0.20 0.26 0.34
0.76 0.72 0.70 0.70 0.71 0.69 0.67 0.66 0.63 0.58 0.56 0.68 0.61 0.64 0.66 0.60 0.59 0.55 0.56 0.53 0.48 0.49 0.56 0.61 0.49 0.43 0.45 0.38 0.43 0.49 0.49 0.56 0.66 0.53 0.45 0.28 0.21 0.24 0.22 0.21 0.23 0.24 0.24 0.19 0.20 0.23 0.30
0.83 0.78 0.74 0.71 0.69 0.69 0.69 0.67 0.63 0.60 0.62 0.60 0.51 0.54 0.62 0.42 0.48 0.43 0.46 0.44 0.48 0.52 0.53 0.60 0.55 0.56 0.44 0.46 0.48 0.67 0.67 0.70 0.76 0.81 0.57 0.41 0.26 0.26 0.24 0.23 0.23 0.23 0.25 0.24 0.19 0.22 0.28
0.83 0.81 0.77 0.73 0.70 0.69 0.68 0.70 0.70 0.63 0.66 0.52 0.53 0.52 0.42 0.39 0.41 0.42 0.41 0.45 0.46 0.57 0.61 0.63 0.74 0.61 0.59 0.57 0.68 0.71 0.98 0.81 1.03 0.82 0.68 0.66 0.49 0.37 0.24 0.27 0.28 0.21 0.25 0.27 0.27 0.24 0.24
0.84 0.81 0.77 0.74 0.71 0.69 0.68 0.68 0.69 0.69 0.69 0.67 0.63 0.55 0.45 0.37 0.37 0.36 0.39 0.39 0.34 0.40 0.51 0.67 0.71 0.64 0.71 0.82 0.82 0.73 0.67 0.66 0.64 0.65 0.70 0.51 0.56 0.57 0.37 0.30 0.24 0.29 0.29 0.27 0.26 0.29 0.30
0.89 0.89 0.84 0.76 0.73 0.70 0.69 0.69 0.68 0.69 0.68 0.67 0.66 0.58 0.52 0.42 0.44 0.41 0.40 0.39 0.38 0.34 0.28 0.35 0.61 0.77 0.75 0.63 0.54 0.45 0.47 0.56 0.57 0.61 0.60 0.56 0.50 0.51 0.47 0.36 0.30 0.33 0.32 0.28 0.27 0.25 0.30
0.90 0.92 0.94 0.90 0.81 0.76 0.73 0.74 0.70 0.68 0.66 0.66 0.65 0.62 0.54 0.44 0.46 0.50 0.45 0.46 0.40 0.39 0.30 0.32 0.40 0.57 0.65 0.69 0.57 0.43 0.38 0.44 0.59 0.58 0.57 0.57 0.54 0.56 0.58 0.41 0.34 0.30 0.39 0.38 0.39 0.27 0.32
0.89 0.91 0.94 0.96 0.92 0.86 0.82 0.80 0.79 0.78 0.77 0.71 0.68 0.69 0.53 0.42 0.44 0.49 0.44 0.46 0.52 0.47 0.39 0.41 0.51 0.56 0.72 0.59 0.51 0.49 0.48 0.61 0.49 0.58 0.56 0.49 0.56 0.57 0.47 0.41 0.42 0.40 0.45 0.42 0.36 0.30 0.36
0.85 0.89 0.92 0.94 0.95 0.91 0.90 0.88 0.87 0.87 0.85 0.79 0.74 0.82 0.65 0.51 0.47 0.46 0.45 0.41 0.44 0.46 0.41 0.51 0.42 0.54 0.60 0.53 0.50 0.52 0.52 0.65 0.70 0.68 0.54 0.52 0.50 0.50 0.54 0.44 0.35 0.43 0.69 0.50 0.55 0.80 0.55
0.81 0.83 0.86 0.90 0.93 0.93 0.91 0.91 0.91 0.90 0.90 0.88 0.72 0.89 0.82 0.62 0.49 0.53 0.49 0.48 0.46 0.50 0.47 0.49 0.42 0.52 0.66 0.55 0.62 0.64 0.60 0.65 0.72 0.61 0.63 0.54 0.58 0.48 0.72 0.71 0.92 0.91 0.80 0.84 0.84 0.95 1.01

GFSGBSN_prec_pwat_276.txt.gz
Precipitable_Water
0.76 0.77 0.78 0.80 0.78 0.74 0.69 0.67 0.66 0.64 0.68 0.67 0.66 0.64 0.64 0.62 0.60 0.59 0.57 0.54 0.51 0.50 0.47 0.46 0.45 0.48 0.37 0.28 0.28 0.45 0.40 0.57 0.77 0.78 0.74 0.65 0.49 0.57 0.63 0.72 0.75 0.84 1.07 1.01 0.91 0.89 0.94
0.76 0.74 0.74 0.77 0.76 0.73 0.68 0.67 0.67 0.63 0.67 0.68 0.66 0.63 0.62 0.62 0.59 0.57 0.55 0.53 0.49 0.48 0.48 0.46 0.47 0.47 0.34 0.20 0.33 0.37 0.36 0.54 0.67 0.78 0.70 0.62 0.51 0.63 0.62 0.69 0.64 0.85 0.93 0.93 0.89 0.84 0.85
0.74 0.74 0.73 0.74 0.74 0.72 0.67 0.67 0.67 0.63 0.65 0.69 0.68 0.64 0.61 0.61 0.60 0.56 0.53 0.51 0.50 0.48 0.47 0.47 0.49 0.43 0.29 0.26 0.34 0.32 0.28 0.38 0.56 0.68 0.66 0.67 0.57 0.56 0.63 0.66 0.69 0.64 0.62 0.70 0.84 0.85 0.82
0.73 0.73 0.71 0.71 0.73 0.70 0.67 0.66 0.66 0.63 0.63 0.69 0.69 0.64 0.61 0.59 0.59 0.56 0.50 0.47 0.47 0.48 0.49 0.49 0.50 0.41 0.22 0.31 0.37 0.32 0.30 0.30 0.49 0.52 0.64 0.56 0.59 0.49 0.57 0.67 0.64 0.52 0.58 0.62 0.89 0.93 0.95
0.72 0.70 0.68 0.69 0.70 0.68 0.66 0.65 0.65 0.63 0.62 0.68 0.70 0.65 0.61 0.59 0.57 0.53 0.50 0.48 0.48 0.50 0.51 0.51 0.38 0.35 0.23 0.33 0.23 0.27 0.26 0.26 0.35 0.52 0.57 0.56 0.44 0.45 0.56 0.46 0.44 0.54 0.49 0.68 0.77 0.87 0.86
0.71 0.69 0.68 0.67 0.68 0.67 0.66 0.65 0.64 0.61 0.61 0.68 0.70 0.66 0.63 0.59 0.55 0.52 0.50 0.49 0.50 0.49 0.50 0.51 0.44 0.32 0.30 0.24 0.20 0.18 0.22 0.27 0.25 0.36 0.47 0.50 0.52 0.44 0.50 0.54 0.41 0.61 0.63 0.71 0.71 0.82 0.78
0.70 0.69 0.68 0.66 0.68 0.67 0.66 0.65 0.63 0.61 0.61 0.69 0.68 0.65 0.64 0.58 0.54 0.53 0.49 0.48 0.49 0.52 0.50 0.24 0.38 0.18 0.25 0.24 0.27 0.22 0.26 0.25 0.26 0.25 0.25 0.36 0.38 0.39 0.46 0.54 0.52 0.60 0.70 0.74 0.72 0.78 0.66
0.69 0.67 0.66 0.67 0.68 0.66 0.65 0.64 0.62 0.60 0.62 0.69 0.66 0.64 0.62 0.57 0.54 0.54 0.52 0.46 0.51 0.59 0.40 0.41 0.37 0.32 0.28 0.27 0.21 0.22 0.26 0.22 0.20 0.18 0.22 0.23 0.25 0.38 0.51 0.55 0.52 0.55 0.56 0.61 0.63 0.60 0.57
0.69 0.68 0.67 0.68 0.67 0.66 0.64 0.63 0.61 0.60 0.64 0.70 0.65 0.64 0.60 0.56 0.56 0.51 0.46 0.51 0.59 0.53 0.28 0.29 0.37 0.27 0.27 0.25 0.19 0.21 0.21 0.21 0.18 0.18 0.19 0.19 0.21 0.26 0.29 0.31 0.41 0.48 0.49 0.51 0.51 0.59 0.68
0.69 0.68 0.67 0.68 0.66 0.65 0.64 0.62 0.62 0.63 0.69 0.70 0.66 0.64 0.59 0.57 0.54 0.58 0.51 0.63 0.57 0.56 0.22 0.25 0.28 0.27 0.26 0.27 0.17 0.22 0.25 0.22 0.18 0.16 0.20 0.20 0.23 0.22 0.21 0.17 0.23 0.36 0.53 0.51 0.52 0.60 0.46
0.68 0.66 0.66 0.66 0.65 0.64 0.63 0.62 0.63 0.67 0.71 0.68 0.65 0.62 0.61 0.63 0.60 0.55 0.70 0.59 0.58 0.46 0.21 0.34 0.29 0.33 0.28 0.24 0.22 0.18 0.26 0.23 0.17 0.15 0.18 0.17 0.19 0.19 0.19 0.19 0.17 0.26 0.48 0.52 0.52 0.48 0.43
0.67 0.66 0.65 0.64 0.62 0.62 0.62 0.63 0.67 0.70 0.71 0.66 0.63 0.62 0.67 0.67 0.61 0.55 0.60 0.58 0.48 0.23 0.15 0.26 0.31 0.26 0.22 0.23 0.23 0.24 0.21 0.24 0.20 0.18 0.17 0.18 0.21 0.21 0.21 0.22 0.18 0.23 0.32 0.44 0.57 0.51 0.37
0.66 0.65 0.64 0.62 0.61 0.61 0.62 0.65 0.69 0.71 0.70 0.63 0.62 0.67 0.69 0.70 0.64 0.69 0.59 0.49 0.26 0.19 0.29 0.27 0.27 0.24 0.20 0.21 0.19 0.22 0.20 0.18 0.16 0.16 0.15 0.18 0.18 0.20 0.22 0.18 0.20 0.18 0.26 0.29 0.33 0.39 0.31
0.68 0.65 0.63 0.63 0.61 0.59 0.61 0.63 0.66 0.70 0.68 0.61 0.67 0.71 0.71 0.64 0.71 0.64 0.55 0.36 0.25 0.27 0.23 0.35 0.34 0.31 0.23 0.23 0.25 0.21 0.21 0.19 0.19 0.20 0.18 0.16 0.15 0.17 0.19 0.18 0.17 0.17 0.21 0.28 0.28 0.29 0.32
0.74 0.70 0.66 0.63 0.61 0.59 0.58 0.59 0.61 0.69 0.66 0.66 0.73 0.72 0.63 0.72 0.66 0.63 0.48 0.26 0.23 0.33 0.37 0.33 0.33 0.25 0.25 0.26 0.29 0.26 0.20 0.20 0.19 0.19 0.16 0.18 0.18 0.23 0.22 0.18 0.18 0.16 0.17 0.25 0.26 0.30 0.34
0.74 0.72 0.69 0.64 0.62 0.62 0.58 0.56 0.55 0.66 0.66 0.73 0.70 0.76 0.71 0.71 0.69 0.56 0.39 0.32 0.44 0.42 0.39 0.36 0.26 0.28 0.23 0.28 0.26 0.27 0.26 0.22 0.22 0.23 0.24 0.20 0.18 0.25 0.24 0.20 0.18 0.16 0.18 0.20 0.17 0.15 0.19
0.72 0.71 0.70 0.68 0.64 0.63 0.63 0.58 0.55 0.59 0.65 0.78 0.81 0.79 0.78 0.67 0.64 0.48 0.33 0.37 0.47 0.44 0.34 0.28 0.23 0.26 0.34 0.34 0.38 0.31 0.22 0.24 0.25 0.22 0.25 0.24 0.21 0.21 0.23 0.20 0.17 0.16 0.14 0.16 0.17 0.17 0.13
0.73 0.71 0.70 0.69 0.66 0.62 0.60 0.59 0.56 0.59 0.64 0.78 0.76 0.67 0.91 0.75 0.42 0.46 0.39 0.51 0.52 0.45 0.41 0.32 0.27 0.32 0.34 0.37 0.34 0.35 0.29 0.28 0.29 0.26 0.21 0.24 0.23 0.19 0.19 0.23 0.25 0.20 0.18 0.15 0.15 0.15 0.17
0.72 0.71 0.70 0.69 0.68 0.67 0.63 0.59 0.53 0.50 0.60 0.64 0.77 0.85 0.87 0.68 0.48 0.58 0.63 0.54 0.51 0.43 0.41 0.40 0.34 0.28 0.32 0.32 0.32 0.38 0.41 0.38 0.35 0.29 0.24 0.25 0.23 0.19 0.18 0.19 0.24 0.20 0.18 0.18 0.17 0.17 0.22
0.77 0.71 0.69 0.69 0.68 0.67 0.65 0.63 0.61 0.55 0.58 0.63 0.62 0.65 0.78 0.70 0.49 0.50 0.59 0.56 0.56 0.60 0.50 0.44 0.49 0.44 0.35 0.36 0.39 0.38 0.51 0.48 0.49 0.47 0.46 0.39 0.26 0.23 0.16 0.19 0.24 0.22 0.24 0.21 0.17 0.16 0.18
0.83 0.79 0.74 0.69 0.68 0.67 0.67 0.65 0.61 0.60 0.55 0.60 0.63 0.69 0.75 0.66 0.69 0.65 0.56 0.54 0.52 0.49 0.59 0.57 0.52 0.45 0.42 0.39 0.40 0.39 0.41 0.52 0.65 0.76 0.66 0.45 0.27 0.24 0.25 0.24 0.23 0.23 0.24 0.21 0.18 0.16 0.17
0.81 0.78 0.75 0.71 0.69 0.67 0.65 0.66 0.64 0.58 0.62 0.57 0.46 0.55 0.56 0.43 0.43 0.42 0.44 0.38 0.42 0.46 0.54 0.50 0.60 0.56 0.54 0.40 0.43 0.42 0.51 0.65 0.72 0.85 0.78 0.60 0.36 0.26 0.23 0.25 0.24 0.21 0.22 0.23 0.25 0.21 0.19
0.88 0.84 0.77 0.72 0.68 0.66 0.65 0.65 0.66 0.66 0.69 0.60 0.61 0.54 0.47 0.38 0.38 0.39 0.45 0.45 0.45 0.52 0.54 0.60 0.61 0.61 0.65 0.57 0.57 0.63 0.75 0.83 0.86 0.78 0.66 0.61 0.54 0.45 0.26 0.28 0.26 0.21 0.20 0.22 0.24 0.27 0.22
0.90 0.91 0.90 0.80 0.71 0.67 0.66 0.66 0.65 0.65 0.66 0.69 0.69 0.57 0.46 0.38 0.42 0.43 0.42 0.41 0.39 0.37 0.35 0.45 0.62 0.61 0.67 0.79 0.77 0.68 0.68 0.73 0.77 0.79 0.77 0.60 0.66 0.70 0.55 0.53 0.28 0.27 0.28 0.26 0.25 0.28 0.29
0.88 0.90 0.92 0.94 0.87 0.77 0.72 0.70 0.67 0.64 0.63 0.60 0.71 0.61 0.51 0.42 0.46 0.45 0.44 0.43 0.43 0.42 0.38 0.33 0.29 0.50 0.75 0.75 0.57 0.47 0.45 0.48 0.53 0.62 0.63 0.71 0.65 0.56 0.45 0.43 0.51 0.55 0.33 0.31 0.28 0.26 0.31
0.84 0.87 0.91 0.93 0.94 0.90 0.86 0.80 0.77 0.75 0.73 0.65 0.69 0.69 0.52 0.42 0.41 0.48 0.44 0.44 0.42 0.42 0.41 0.43 0.39 0.38 0.34 0.50 0.45 0.39 0.41 0.41 0.41 0.53 0.71 0.82 0.83 0.60 0.59 0.40 0.34 0.41 0.51 0.52 0.41 0.28 0.30
0.81 0.82 0.85 0.88 0.91 0.92 0.90 0.89 0.88 0.86 0.84 0.77 0.76 0.84 0.61 0.47 0.48 0.48 0.44 0.45 0.50 0.50 0.46 0.47 0.45 0.48 0.43 0.38 0.42 0.46 0.49 0.65 0.52 0.51 0.52 0.53 0.54 0.52 0.49 0.35 0.36 0.49 0.61 0.66 0.38 0.33 0.35
0.78 0.78 0.79 0.80 0.85 0.89 0.91 0.91 0.91 0.91 0.89 0.83 0.73 0.86 0.75 0.58 0.54 0.54 0.52 0.46 0.44 0.42 0.39 0.46 0.50 0.47 0.50 0.47 0.49 0.49 0.50 0.65 0.63 0.73 0.65 0.58 0.50 0.51 0.61 0.50 0.37 0.70 0.76 0.64 0.63 0.60 0.43
0.80 0.77 0.76 0.77 0.78 0.82 0.88 0.91 0.93 0.92 0.91 0.88 0.74 0.87 0.87 0.68 0.56 0.65 0.61 0.60 0.52 0.49 0.45 0.49 0.47 0.50 0.57 0.59 0.52 0.62 0.62 0.80 0.70 0.56 0.71 0.59 0.72 0.74 0.88 0.67 0.74 0.75 0.76 0.87 1.06 0.81 0.91

GFSGBSN_prec_pwat_279.txt.gz
Precipitable_Water
0.75 0.73 0.72 0.74 0.75 0.72 0.69 0.66 0.65 0.63 0.61 0.64 0.62 0.60 0.59 0.59 0.57 0.55 0.55 0.52 0.49 0.49 0.48 0.46 0.45 0.46 0.35 0.26 0.25 0.44 0.50 0.57 0.70 0.76 0.71 0.68 0.60 0.56 0.55 0.65 0.85 0.95 1.04 1.04 1.05 0.86 0.89
0.74 0.73 0.72 0.71 0.74 0.72 0.69 0.66 0.66 0.64 0.60 0.65 0.65 0.62 0.58 0.57 0.57 0.54 0.53 0.51 0.48 0.46 0.46 0.47 0.46 0.47 0.33 0.15 0.35 0.38 0.37 0.46 0.53 0.74 0.72 0.71 0.48 0.57 0.56 0.62 0.65 0.76 0.76 0.87 0.88 0.93 0.90
0.73 0.72 0.71 0.70 0.72 0.70 0.68 0.65 0.64 0.65 0.60 0.62 0.65 0.63 0.60 0.57 0.57 0.54 0.49 0.47 0.46 0.46 0.46 0.48 0.49 0.43 0.25 0.17 0.37 0.38 0.32 0.36 0.54 0.71 0.72 0.71 0.56 0.53 0.59 0.55 0.70 0.70 0.58 0.65 0.78 0.88 0.90
0.71 0.71 0.69 0.68 0.70 0.68 0.66 0.65 0.64 0.63 0.59 0.61 0.66 0.65 0.60 0.56 0.55 0.53 0.48 0.43 0.43 0.45 0.48 0.49 0.50 0.41 0.16 0.23 0.35 0.34 0.32 0.27 0.41 0.55 0.63 0.70 0.61 0.47 0.50 0.58 0.60 0.54 0.46 0.49 0.71 0.86 0.89
0.70 0.69 0.68 0.67 0.66 0.67 0.66 0.64 0.63 0.63 0.60 0.62 0.66 0.66 0.61 0.57 0.54 0.52 0.49 0.46 0.44 0.46 0.49 0.50 0.37 0.39 0.17 0.30 0.25 0.26 0.29 0.21 0.33 0.45 0.53 0.63 0.50 0.39 0.45 0.44 0.43 0.47 0.45 0.55 0.68 0.91 0.85
0.71 0.69 0.67 0.66 0.65 0.66 0.64 0.63 0.62 0.61 0.60 0.63 0.67 0.65 0.62 0.58 0.53 0.49 0.48 0.46 0.47 0.47 0.52 0.50 0.43 0.29 0.28 0.19 0.25 0.23 0.24 0.22 0.23 0.26 0.41 0.52 0.50 0.37 0.37 0.39 0.38 0.47 0.58 0.69 0.69 0.83 0.85
0.70 0.68 0.66 0.66 0.66 0.65 0.64 0.63 0.62 0.60 0.58 0.62 0.68 0.64 0.62 0.59 0.53 0.51 0.46 0.42 0.51 0.51 0.49 0.23 0.27 0.16 0.25 0.29 0.29 0.20 0.18 0.19 0.22 0.22 0.19 0.34 0.34 0.31 0.35 0.45 0.53 0.54 0.54 0.61 0.73 0.82 0.76
0.69 0.67 0.66 0.65 0.67 0.65 0.64 0.62 0.61 0.60 0.59 0.65 0.68 0.63 0.61 0.57 0.53 0.53 0.50 0.49 0.50 0.51 0.33 0.47 0.37 0.34 0.35 0.33 0.20 0.19 0.23 0.16 0.17 0.16 0.21 0.22 0.22 0.32 0.42 0.47 0.50 0.51 0.51 0.53 0.67 0.69 0.64
0.69 0.67 0.65 0.66 0.65 0.64 0.63 0.62 0.61 0.60 0.62 0.68 0.67 0.62 0.59 0.54 0.53 0.55 0.47 0.47 0.58 0.53 0.29 0.21 0.27 0.28 0.29 0.28 0.19 0.20 0.23 0.20 0.18 0.17 0.18 0.18 0.20 0.27 0.30 0.31 0.40 0.43 0.43 0.48 0.55 0.58 0.65
0.67 0.65 0.65 0.65 0.63 0.62 0.63 0.61 0.61 0.62 0.66 0.69 0.65 0.61 0.57 0.54 0.51 0.58 0.54 0.63 0.58 0.57 0.22 0.16 0.22 0.30 0.29 0.28 0.19 0.20 0.24 0.18 0.17 0.15 0.17 0.18 0.22 0.23 0.23 0.24 0.22 0.15 0.34 0.42 0.52 0.51 0.42
0.68 0.65 0.65 0.64 0.62 0.62 0.62 0.61 0.62 0.64 0.67 0.67 0.62 0.59 0.59 0.61 0.57 0.56 0.61 0.63 0.54 0.48 0.16 0.31 0.31 0.37 0.31 0.22 0.23 0.21 0.22 0.21 0.15 0.15 0.17 0.14 0.18 0.20 0.20 0.20 0.22 0.17 0.24 0.30 0.37 0.43 0.42
0.67 0.65 0.64 0.62 0.61 0.60 0.60 0.62 0.64 0.66 0.67 0.65 0.60 0.59 0.63 0.63 0.58 0.60 0.59 0.55 0.50 0.23 0.13 0.28 0.32 0.29 0.24 0.22 0.22 0.27 0.20 0.23 0.23 0.18 0.17 0.15 0.20 0.20 0.20 0.21 0.21 0.21 0.18 0.23 0.35 0.42 0.41
0.69 0.66 0.64 0.62 0.60 0.59 0.60 0.61 0.64 0.66 0.67 0.63 0.59 0.63 0.63 0.65 0.53 0.70 0.59 0.49 0.24 0.17 0.32 0.26 0.29 0.29 0.25 0.22 0.20 0.22 0.20 0.19 0.17 0.13 0.12 0.15 0.15 0.19 0.21 0.18 0.21 0.20 0.17 0.14 0.23 0.28 0.30
0.72 0.69 0.66 0.63 0.61 0.59 0.59 0.59 0.61 0.65 0.67 0.59 0.62 0.65 0.64 0.60 0.71 0.67 0.54 0.37 0.20 0.26 0.28 0.34 0.34 0.30 0.24 0.22 0.22 0.23 0.20 0.18 0.20 0.17 0.16 0.16 0.13 0.17 0.19 0.18 0.17 0.18 0.18 0.14 0.16 0.22 0.26
0.74 0.72 0.69 0.65 0.63 0.61 0.58 0.57 0.57 0.64 0.65 0.62 0.66 0.71 0.63 0.61 0.63 0.63 0.43 0.23 0.24 0.39 0.40 0.38 0.37 0.31 0.29 0.29 0.27 0.27 0.24 0.21 0.21 0.21 0.14 0.16 0.16 0.24 0.24 0.23 0.20 0.15 0.16 0.18 0.17 0.24 0.25
0.74 0.72 0.70 0.67 0.64 0.63 0.60 0.56 0.54 0.58 0.63 0.69 0.62 0.66 0.64 0.76 0.64 0.53 0.37 0.27 0.36 0.51 0.43 0.40 0.31 0.33 0.27 0.28 0.27 0.28 0.27 0.28 0.23 0.24 0.23 0.17 0.15 0.21 0.24 0.27 0.23 0.19 0.17 0.14 0.17 0.15 0.16
0.73 0.72 0.70 0.68 0.66 0.64 0.62 0.59 0.54 0.55 0.60 0.76 0.84 0.72 0.73 0.81 0.62 0.43 0.28 0.28 0.44 0.55 0.45 0.35 0.32 0.28 0.29 0.32 0.39 0.37 0.30 0.33 0.31 0.25 0.24 0.22 0.19 0.17 0.24 0.23 0.21 0.18 0.16 0.15 0.16 0.16 0.14
0.72 0.70 0.69 0.69 0.66 0.63 0.60 0.58 0.55 0.54 0.56 0.78 0.80 0.61 0.91 0.87 0.50 0.40 0.30 0.45 0.53 0.52 0.52 0.41 0.35 0.29 0.26 0.33 0.37 0.39 0.37 0.36 0.37 0.29 0.24 0.24 0.22 0.18 0.20 0.25 0.26 0.22 0.20 0.18 0.14 0.13 0.16
0.78 0.73 0.69 0.68 0.66 0.66 0.64 0.62 0.58 0.49 0.54 0.55 0.72 0.79 0.89 0.79 0.36 0.47 0.59 0.61 0.65 0.55 0.45 0.40 0.38 0.37 0.29 0.25 0.30 0.37 0.38 0.42 0.44 0.38 0.27 0.32 0.24 0.20 0.19 0.22 0.24 0.22 0.23 0.21 0.19 0.17 0.14
0.79 0.76 0.72 0.68 0.67 0.66 0.65 0.63 0.61 0.58 0.54 0.51 0.68 0.64 0.77 0.78 0.62 0.55 0.48 0.56 0.56 0.68 0.59 0.53 0.45 0.44 0.42 0.32 0.31 0.31 0.34 0.42 0.61 0.58 0.54 0.37 0.28 0.26 0.24 0.23 0.23 0.20 0.22 0.23 0.20 0.16 0.16
0.81 0.77 0.73 0.69 0.67 0.65 0.63 0.63 0.61 0.58 0.57 0.57 0.71 0.64 0.61 0.58 0.62 0.61 0.59 0.61 0.55 0.50 0.59 0.59 0.54 0.50 0.45 0.37 0.38 0.37 0.40 0.45 0.59 0.70 0.66 0.57 0.38 0.37 0.31 0.29 0.25 0.23 0.23 0.25 0.24 0.23 0.17
0.88 0.85 0.78 0.70 0.67 0.65 0.64 0.63 0.63 0.61 0.63 0.64 0.49 0.46 0.58 0.53 0.51 0.46 0.48 0.45 0.41 0.43 0.48 0.48 0.52 0.54 0.63 0.50 0.48 0.41 0.48 0.58 0.62 0.70 0.71 0.71 0.49 0.49 0.35 0.33 0.29 0.27 0.24 0.25 0.24 0.25 0.22
0.88 0.90 0.90 0.82 0.71 0.66 0.65 0.63 0.62 0.60 0.65 0.63 0.68 0.60 0.45 0.35 0.35 0.35 0.39 0.45 0.44 0.46 0.48 0.51 0.53 0.55 0.57 0.63 0.79 0.74 0.67 0.65 0.74 0.68 0.65 0.66 0.59 0.59 0.39 0.35 0.33 0.26 0.22 0.24 0.24 0.24 0.24
0.86 0.88 0.90 0.91 0.89 0.80 0.73 0.70 0.67 0.64 0.61 0.57 0.65 0.63 0.47 0.36 0.40 0.39 0.43 0.45 0.42 0.42 0.37 0.38 0.41 0.43 0.55 0.64 0.77 0.78 0.71 0.64 0.67 0.69 0.73 0.60 0.61 0.60 0.46 0.42 0.27 0.32 0.47 0.37 0.30 0.31 0.29
0.81 0.82 0.84 0.87 0.90 0.90 0.87 0.84 0.79 0.74 0.71 0.59 0.63 0.62 0.50 0.38 0.42 0.39 0.41 0.43 0.45 0.44 0.40 0.41 0.43 0.42 0.46 0.52 0.49 0.52 0.50 0.51 0.50 0.55 0.55 0.60 0.55 0.48 0.44 0.44 0.49 0.44 0.55 0.55 0.43 0.31 0.36
0.78 0.78 0.79 0.80 0.82 0.87 0.90 0.90 0.88 0.87 0.85 0.74 0.77 0.79 0.60 0.43 0.39 0.47 0.43 0.44 0.39 0.40 0.41 0.47 0.51 0.54 0.46 0.30 0.36 0.31 0.33 0.41 0.47 0.54 0.67 0.67 0.66 0.54 0.51 0.41 0.40 0.52 0.62 0.68 0.62 0.34 0.38
0.80 0.78 0.77 0.76 0.77 0.79 0.83 0.86 0.88 0.89 0.87 0.81 0.76 0.85 0.70 0.54 0.52 0.52 0.46 0.44 0.49 0.45 0.40 0.44 0.52 0.50 0.55 0.37 0.28 0.26 0.34 0.56 0.48 0.56 0.63 0.62 0.61 0.51 0.51 0.54 0.58 0.69 0.71 0.68 0.45 0.44 0.62
0.86 0.84 0.80 0.76 0.75 0.76 0.80 0.84 0.86 0.87 0.86 0.81 0.73 0.86 0.74 0.58 0.54 0.57 0.56 0.51 0.49 0.46 0.39 0.43 0.39 0.44 0.47 0.43 0.46 0.41 0.44 0.57 0.55 0.63 0.62 0.59 0.58 0.55 0.55 0.50 0.44 0.87 0.76 0.59 0.70 0.69 0.73
0.97 0.94 0.90 0.83 0.79 0.82 0.88 0.90 0.88 0.86 0.84 0.82 0.65 0.81 0.83 0.63 0.52 0.59 0.55 0.57 0.59 0.55 0.48 0.45 0.44 0.46 0.52 0.49 0.49 0.53 0.50 0.63 0.59 0.49 0.80 0.62 0.65 0.59 0.63 0.56 0.73 0.87 0.82 0.90 0.90 0.83 0.81

GFSGBSN_prec_pwat_285.txt.gz
Precipitable_Water
0.70 0.69 0.68 0.67 0.66 0.68 0.67 0.64 0.62 0.61 0.59 0.54 0.56 0.58 0.58 0.55 0.54 0.53 0.51 0.52 0.51 0.49 0.48 0.46 0.46 0.45 0.32 0.19 0.26 0.51 0.68 0.75 0.82 0.79 0.76 0.70 0.69 0.68 0.54 0.57 0.61 0.68 0.83 1.06 1.21 1.13 1.19
0.68 0.69 0.68 0.66 0.65 0.65 0.66 0.64 0.62 0.60 0.59 0.55 0.55 0.58 0.58 0.55 0.53 0.53 0.51 0.48 0.47 0.45 0.46 0.48 0.48 0.50 0.28 0.10 0.23 0.47 0.54 0.59 0.59 0.67 0.68 0.73 0.73 0.76 0.58 0.56 0.54 0.56 0.62 0.76 0.98 1.08 1.15
0.68 0.68 0.67 0.65 0.65 0.64 0.64 0.62 0.61 0.60 0.58 0.55 0.54 0.58 0.59 0.55 0.52 0.52 0.51 0.46 0.43 0.43 0.45 0.48 0.50 0.46 0.22 0.12 0.34 0.37 0.41 0.47 0.55 0.57 0.57 0.78 0.71 0.62 0.60 0.53 0.56 0.55 0.51 0.65 0.84 1.00 1.05
0.70 0.68 0.66 0.64 0.64 0.63 0.64 0.63 0.61 0.60 0.57 0.55 0.54 0.59 0.60 0.56 0.53 0.49 0.47 0.44 0.41 0.43 0.46 0.49 0.52 0.43 0.13 0.20 0.34 0.34 0.32 0.33 0.46 0.58 0.64 0.71 0.66 0.55 0.56 0.58 0.54 0.51 0.55 0.50 0.78 0.94 0.99
0.70 0.68 0.66 0.64 0.63 0.63 0.64 0.63 0.62 0.59 0.57 0.55 0.56 0.61 0.60 0.56 0.52 0.47 0.44 0.43 0.43 0.43 0.48 0.49 0.39 0.31 0.13 0.30 0.21 0.28 0.27 0.24 0.32 0.47 0.54 0.60 0.60 0.50 0.48 0.45 0.43 0.49 0.42 0.51 0.62 0.95 0.91
0.69 0.67 0.65 0.64 0.64 0.63 0.63 0.62 0.61 0.59 0.58 0.56 0.58 0.63 0.59 0.56 0.53 0.47 0.44 0.43 0.53 0.53 0.51 0.52 0.42 0.21 0.19 0.19 0.26 0.22 0.28 0.28 0.23 0.34 0.44 0.49 0.49 0.40 0.34 0.38 0.33 0.40 0.41 0.54 0.59 0.70 0.80
0.69 0.66 0.64 0.63 0.62 0.61 0.61 0.61 0.59 0.58 0.57 0.57 0.60 0.62 0.58 0.56 0.52 0.48 0.46 0.48 0.39 0.38 0.44 0.26 0.20 0.16 0.24 0.27 0.35 0.23 0.25 0.22 0.21 0.23 0.26 0.37 0.35 0.31 0.30 0.39 0.48 0.47 0.48 0.52 0.56 0.59 0.52
0.67 0.65 0.64 0.63 0.62 0.60 0.61 0.60 0.60 0.59 0.58 0.58 0.61 0.61 0.57 0.55 0.52 0.53 0.57 0.41 0.43 0.46 0.23 0.30 0.29 0.29 0.34 0.38 0.26 0.26 0.25 0.19 0.16 0.13 0.20 0.22 0.22 0.33 0.38 0.41 0.44 0.46 0.46 0.46 0.48 0.46 0.42
0.67 0.64 0.63 0.62 0.61 0.60 0.60 0.59 0.59 0.58 0.58 0.60 0.61 0.60 0.56 0.54 0.54 0.59 0.54 0.49 0.60 0.54 0.26 0.22 0.26 0.25 0.27 0.33 0.24 0.21 0.21 0.16 0.13 0.13 0.15 0.13 0.16 0.24 0.26 0.27 0.34 0.40 0.37 0.36 0.34 0.39 0.37
0.66 0.64 0.62 0.61 0.60 0.58 0.58 0.59 0.58 0.57 0.58 0.60 0.60 0.57 0.54 0.54 0.47 0.56 0.48 0.59 0.61 0.53 0.17 0.23 0.21 0.19 0.27 0.28 0.19 0.28 0.24 0.17 0.14 0.12 0.14 0.15 0.17 0.19 0.21 0.20 0.25 0.26 0.28 0.29 0.29 0.26 0.26
0.68 0.65 0.62 0.61 0.58 0.58 0.58 0.58 0.57 0.58 0.58 0.60 0.59 0.56 0.55 0.57 0.53 0.49 0.56 0.67 0.59 0.44 0.09 0.30 0.29 0.37 0.29 0.21 0.22 0.24 0.26 0.21 0.15 0.15 0.16 0.12 0.13 0.18 0.20 0.22 0.25 0.23 0.25 0.24 0.25 0.24 0.25
0.70 0.67 0.64 0.62 0.60 0.59 0.59 0.57 0.57 0.58 0.59 0.59 0.58 0.56 0.57 0.54 0.58 0.62 0.66 0.59 0.47 0.17 0.11 0.27 0.34 0.33 0.31 0.25 0.24 0.24 0.20 0.22 0.22 0.17 0.18 0.14 0.18 0.17 0.20 0.23 0.23 0.22 0.20 0.20 0.24 0.24 0.18
0.73 0.70 0.66 0.64 0.61 0.59 0.56 0.56 0.56 0.58 0.59 0.60 0.56 0.58 0.57 0.57 0.42 0.65 0.61 0.42 0.17 0.13 0.32 0.28 0.30 0.32 0.30 0.25 0.22 0.22 0.20 0.18 0.15 0.12 0.12 0.14 0.15 0.17 0.18 0.16 0.19 0.18 0.16 0.12 0.13 0.15 0.15
0.75 0.73 0.69 0.67 0.64 0.61 0.58 0.55 0.55 0.56 0.60 0.58 0.59 0.62 0.60 0.56 0.62 0.64 0.49 0.27 0.14 0.31 0.32 0.36 0.34 0.32 0.28 0.26 0.23 0.24 0.23 0.19 0.22 0.18 0.15 0.12 0.08 0.11 0.15 0.16 0.16 0.18 0.18 0.14 0.10 0.10 0.13
0.75 0.74 0.71 0.68 0.64 0.62 0.59 0.55 0.53 0.54 0.59 0.62 0.65 0.63 0.57 0.56 0.66 0.59 0.37 0.16 0.22 0.34 0.38 0.36 0.33 0.29 0.28 0.29 0.29 0.26 0.25 0.23 0.23 0.23 0.16 0.14 0.10 0.19 0.17 0.20 0.20 0.19 0.17 0.20 0.16 0.16 0.12
0.76 0.73 0.71 0.69 0.66 0.64 0.61 0.56 0.52 0.51 0.57 0.71 0.61 0.65 0.61 0.67 0.61 0.50 0.27 0.17 0.34 0.44 0.45 0.40 0.32 0.30 0.27 0.28 0.28 0.30 0.29 0.29 0.28 0.28 0.27 0.21 0.13 0.18 0.20 0.22 0.22 0.20 0.22 0.17 0.17 0.12 0.10
0.77 0.74 0.71 0.69 0.66 0.65 0.63 0.59 0.53 0.50 0.56 0.79 0.70 0.60 0.80 0.78 0.64 0.40 0.18 0.19 0.31 0.47 0.53 0.47 0.40 0.36 0.34 0.31 0.31 0.29 0.35 0.37 0.43 0.38 0.33 0.26 0.21 0.17 0.21 0.20 0.19 0.20 0.19 0.20 0.20 0.17 0.13
0.78 0.73 0.69 0.66 0.64 0.62 0.60 0.58 0.54 0.50 0.54 0.76 0.71 0.54 0.90 0.81 0.47 0.41 0.31 0.37 0.47 0.55 0.57 0.51 0.48 0.42 0.37 0.39 0.36 0.31 0.33 0.39 0.51 0.49 0.37 0.30 0.24 0.17 0.18 0.24 0.25 0.24 0.23 0.23 0.17 0.15 0.16
0.80 0.74 0.70 0.67 0.64 0.64 0.62 0.60 0.57 0.50 0.50 0.59 0.61 0.65 0.89 0.74 0.41 0.45 0.50 0.51 0.52 0.52 0.53 0.48 0.46 0.49 0.48 0.39 0.34 0.38 0.38 0.47 0.59 0.53 0.49 0.46 0.27 0.18 0.16 0.20 0.25 0.23 0.26 0.27 0.24 0.21 0.17
0.85 0.82 0.75 0.68 0.65 0.64 0.62 0.61 0.58 0.57 0.60 0.58 0.58 0.49 0.60 0.65 0.64 0.54 0.45 0.44 0.43 0.53 0.53 0.54 0.49 0.49 0.46 0.44 0.41 0.39 0.42 0.46 0.62 0.61 0.66 0.60 0.41 0.29 0.20 0.22 0.29 0.25 0.29 0.31 0.27 0.20 0.19
0.84 0.84 0.85 0.81 0.73 0.67 0.64 0.62 0.59 0.59 0.69 0.63 0.61 0.49 0.52 0.42 0.49 0.52 0.48 0.43 0.42 0.44 0.52 0.52 0.46 0.46 0.44 0.41 0.41 0.42 0.47 0.48 0.58 0.68 0.62 0.56 0.44 0.46 0.44 0.40 0.37 0.34 0.32 0.33 0.29 0.28 0.23
0.80 0.80 0.80 0.81 0.84 0.85 0.82 0.73 0.64 0.57 0.66 0.56 0.44 0.50 0.52 0.43 0.46 0.50 0.49 0.44 0.40 0.45 0.46 0.44 0.42 0.45 0.48 0.44 0.44 0.40 0.48 0.52 0.47 0.58 0.60 0.62 0.43 0.49 0.43 0.48 0.45 0.34 0.34 0.36 0.35 0.35 0.32
0.81 0.80 0.78 0.77 0.76 0.77 0.81 0.83 0.83 0.74 0.57 0.47 0.54 0.57 0.45 0.39 0.35 0.29 0.31 0.41 0.44 0.46 0.48 0.48 0.46 0.43 0.41 0.48 0.53 0.51 0.54 0.63 0.61 0.55 0.54 0.53 0.49 0.43 0.35 0.44 0.41 0.31 0.36 0.42 0.46 0.46 0.41
0.87 0.84 0.80 0.76 0.75 0.75 0.78 0.80 0.81 0.81 0.78 0.65 0.64 0.59 0.41 0.31 0.35 0.34 0.35 0.33 0.30 0.38 0.37 0.42 0.46 0.41 0.47 0.56 0.54 0.51 0.51 0.55 0.64 0.63 0.65 0.53 0.47 0.43 0.35 0.37 0.23 0.39 0.54 0.54 0.53 0.56 0.55
0.87 0.86 0.83 0.79 0.74 0.72 0.74 0.78 0.79 0.78 0.78 0.68 0.70 0.61 0.49 0.35 0.39 0.39 0.39 0.37 0.38 0.39 0.37 0.40 0.46 0.50 0.49 0.43 0.34 0.31 0.30 0.37 0.47 0.58 0.59 0.66 0.57 0.43 0.36 0.33 0.37 0.41 0.51 0.51 0.50 0.51 0.61
0.91 0.90 0.88 0.85 0.81 0.75 0.74 0.77 0.78 0.76 0.73 0.67 0.69 0.73 0.58 0.41 0.35 0.43 0.40 0.43 0.39 0.39 0.39 0.41 0.47 0.50 0.46 0.39 0.35 0.24 0.21 0.24 0.26 0.41 0.59 0.59 0.61 0.47 0.42 0.32 0.26 0.42 0.56 0.65 0.63 0.37 0.65
0.97 0.96 0.96 0.95 0.92 0.87 0.81 0.80 0.83 0.85 0.84 0.75 0.73 0.82 0.65 0.47 0.49 0.48 0.40 0.41 0.47 0.43 0.38 0.42 0.44 0.41 0.46 0.39 0.34 0.31 0.28 0.34 0.25 0.26 0.29 0.39 0.49 0.43 0.45 0.40 0.44 0.58 0.69 0.72 0.43 0.39 0.64
1.02 1.00 1.00 1.00 0.98 0.96 0.94 1.00 1.02 1.02 0.98 0.88 0.75 0.86 0.71 0.55 0.53 0.57 0.57 0.47 0.45 0.43 0.34 0.39 0.33 0.41 0.41 0.35 0.37 0.38 0.35 0.35 0.36 0.41 0.36 0.35 0.41 0.42 0.47 0.42 0.36 0.72 0.72 0.57 0.63 0.74 0.72
1.05 1.05 1.03 1.06 1.09 1.11 1.07 1.01 0.98 0.96 0.93 0.90 0.69 0.83 0.80 0.59 0.49 0.57 0.53 0.51 0.49 0.48 0.42 0.41 0.34 0.39 0.42 0.39 0.40 0.42 0.42 0.49 0.48 0.38 0.60 0.45 0.53 0.47 0.50 0.46 0.64 0.75 0.74 0.78 0.82 0.75 0.76